This is the latest recevied weather packets stored in our database for station/object K5NWZ. If no packets are shown the sender has not sent any weather packets the latest 10 day(s).
| Time | Temp. | Humidity | Pressure | Rain* | Wind** | Luminosity | Snow |
|---|---|---|---|---|---|---|---|
| 1787648773 | 19.44° C | 57% | 1032.9 hPa | 0 mm | - | 0 W/m² | - |
| 1787648471 | 20° C | 57% | 1032.9 hPa | 0 mm | - | 0 W/m² | - |
| 1787648164 | 20.56° C | 54% | 1032.6 hPa | 0 mm | - | 0 W/m² | - |
| 1787647860 | 20.56° C | 54% | 1033.1 hPa | 0 mm | - | 0 W/m² | - |
| 1787647555 | 20.56° C | 55% | 1033 hPa | 0 mm | - | 0 W/m² | - |
| 1787647254 | 20.56° C | 55% | 1033 hPa | 0 mm | - | 0 W/m² | - |
| 1787646949 | 20.56° C | 56% | 1033 hPa | 0 mm | - | 0 W/m² | - |
| 1787646645 | 20.56° C | 55% | 1032.9 hPa | 0 mm | - | 0 W/m² | - |
| 1787646344 | 20.56° C | 55% | 1033 hPa | 0 mm | - | 0 W/m² | - |
| 1787646040 | 20.56° C | 55% | 1032.9 hPa | 0 mm | - | 0 W/m² | - |
| 1787645735 | 20.56° C | 55% | 1032.9 hPa | 0 mm | - | 0 W/m² | - |
| 1787645431 | 20° C | 59% | 1032.7 hPa | 0 mm | - | 0 W/m² | - |
| 1787645126 | 20° C | 59% | 1032.9 hPa | 0 mm | - | 0 W/m² | - |
| 1787644822 | 20° C | 58% | 1032.9 hPa | 0 mm | - | 0 W/m² | - |
| 1787644516 | 20° C | 59% | 1032.9 hPa | 0 mm | - | 0 W/m² | - |
| 1787644212 | 20° C | 59% | 1032.4 hPa | 0 mm | - | 0 W/m² | - |
| 1787643912 | 20° C | 61% | 1032.9 hPa | 0 mm | - | 0 W/m² | - |
| 1787643607 | 19.44° C | 62% | 1032.7 hPa | 0 mm | - | 0 W/m² | - |
| 1787643302 | 20° C | 62% | 1033 hPa | 0 mm | - | 0 W/m² | - |
| 1787642999 | 19.44° C | 63% | 1033 hPa | 0 mm | - | 0 W/m² | - |
| 1787642694 | 20° C | 62% | 1032.5 hPa | 0 mm | - | 0 W/m² | - |
| 1787642394 | 20° C | 61% | 1032.6 hPa | 0 mm | - | 0 W/m² | - |
| 1787642092 | 20° C | 61% | 1032.6 hPa | 0 mm | - | 0 W/m² | - |
| 1787641791 | 20° C | 61% | 1032.7 hPa | 0 mm | - | 0 W/m² | - |
| 1787641485 | 20.56° C | 60% | 1032.7 hPa | 0 mm | - | 0 W/m² | - |
* Rain latest hour (hover to see other rain measurements)
** Current wind speed in m/s (hover to see current wind gust speed)